This demonstration page uses our WeatherBlox Daily Observations layout. Learn more.

Hourly Observations for September 13, 2015

Temp ( °F °C ) Dew Point ( °F °C ) Humidity (%) Winds ( mph kmh ) Pressure ( in mb ) Visibility ( mi km ) Precip ( " mm )
12:15 am 00:15 Clear 57 13.7 52 11 84 84 SE 10 17 30 1016 10 16.0934 0 0
12:35 am 00:35 Clear 56 13.5 51 10.8 84 84 SE 9 15 30 1016 10 16.0934 0 0
12:55 am 00:55 Clear 56 13.1 51 10.6 85 85 SE 10 17 29.97 1015 10 16.0934 0 0
1:15 am 01:15 Clear 55 12.9 51 10.5 85 85 SE 9 15 29.97 1015 10 16.0934 0 0
1:35 am 01:35 Clear 55 12.5 51 10.3 87 87 SE 8 13 29.97 1015 10 16.0934 0 0
1:55 am 01:55 Clear 54 12.2 50 10.2 88 88 SE 8 13 30 1016 10 16.0934 0 0
2:15 am 02:15 Clear 54 12 50 10.1 88 88 SE 7 11 30 1016 10 16.0934 0 0
2:35 am 02:35 Clear 53 11.8 50 10 89 89 SE 7 11 30 1016 10 16.0934 0 0
2:55 am 02:55 Clear 53 11.5 50 9.8 89 89 SSE 8 13 29.97 1015 10 16.0934 0 0
3:15 am 03:15 Clear 53 11.5 50 9.8 89 89 SSE 7 11 29.97 1015 10 16.0934 0 0
3:35 am 03:35 Clear 52 11.3 49 9.7 90 90 SSE 7 11 29.97 1015 10 16.0934 0 0
3:55 am 03:55 Clear 52 11.3 49 9.7 90 90 SSE 5 7 29.97 1015 10 16.0934 0 0
4:15 am 04:15 Clear 53 11.5 50 9.8 89 89 SSE 6 9 29.97 1015 10 16.0934 0 0
4:35 am 04:35 Clear 53 11.5 50 9.8 89 89 SSE 7 11 29.91 1013 10 16.0934 0 0
4:55 am 04:55 Clear 53 11.4 50 9.8 90 90 SSE 6 9 29.94 1014 10 16.0934 0 0
5:15 am 05:15 Clear 52 11.3 49 9.7 90 90 SSE 6 9 29.94 1014 10 16.0934 0 0
5:35 am 05:35 Clear 52 11.1 49 9.6 91 91 SSE 6 9 29.94 1014 10 16.0934 0 0
5:55 am 05:55 Clear 52 11 49 9.5 91 91 SSE 5 7 29.94 1014 10 16.0934 0 0
6:15 am 06:15 Clear 51 10.8 49 9.5 92 92 SSE 3 6 29.94 1014 10 16.0934 0 0
6:35 am 06:35 Clear 51 10.7 49 9.5 92 92 SSE 5 7 29.94 1014 10 16.0934 0 0
6:55 am 06:55 Clear 51 10.5 49 9.2 92 92 SSE 5 7 29.94 1014 10 16.0934 0 0
7:15 am 07:15 Clear 51 10.8 49 9.6 92 92 SSE 6 9 29.94 1014 10 16.0934 0 0
7:35 am 07:35 Sunny 51 10.7 49 9.5 92 92 SSE 5 7 29.94 1014 10 16.0934 0 0
7:55 am 07:55 Sunny 52 11.1 50 9.9 92 92 SSE 5 7 29.94 1014 10 16.0934 0 0
8:15 am 08:15 Sunny 53 11.9 51 10.4 91 91 SSE 5 7 29.91 1013 10 16.0934 0 0
8:35 am 08:35 Sunny 55 12.9 52 11 88 88 SSE 7 11 29.88 1012 10 16.0934 0 0
8:55 am 08:55 Sunny 57 13.7 52 11.2 85 85 SSE 8 13 29.88 1012 10 16.0934 0 0
9:15 am 09:15 Sunny 59 14.9 53 11.5 80 80 S 9 15 29.88 1012 10 16.0934 0 0
9:35 am 09:35 Sunny 61 15.9 53 11.5 75 75 S 12 19 29.85 1011 10 16.0934 0 0
9:55 am 09:55 Sunny 62 16.5 53 11.7 73 73 S 8 13 29.85 1011 10 16.0934 0 0
10:15 am 10:15 Sunny 63 17.2 53 11.9 71 71 S 8 13 29.85 1011 10 16.0934 0 0
10:35 am 10:35 Sunny 65 18.6 54 12.2 67 67 S 7 11 29.83 1010 10 16.0934 0 0
10:55 am 10:55 Sunny 67 19.3 55 12.5 65 65 SSE 9 15 29.83 1010 10 16.0934 0 0
11:15 am 11:15 Sunny 69 20.5 55 12.8 61 61 S 7 11 29.83 1010 10 16.0934 0 0
11:35 am 11:35 Sunny 71 21.5 55 13 59 59 S 8 13 29.77 1008 10 16.0934 0 0
11:55 am 11:55 Sunny 72 22 55 13 57 57 SSE 7 11 29.77 1008 10 16.0934 0 0
12:15 pm 12:15 Sunny 74 23.3 56 13.2 53 53 S 8 13 29.77 1008 10 16.0934 0 0
12:35 pm 12:35 Sunny 75 24.1 56 13.5 52 52 SSE 10 17 29.77 1008 10 16.0934 0 0
12:55 pm 12:55 Sunny 77 24.9 56 13.2 48 48 S 9 15 29.74 1007 10 16.0934 0 0
1:15 pm 13:15 Sunny 77 25.2 56 13.3 48 48 SSE 13 20 29.74 1007 10 16.0934 0 0
1:35 pm 13:35 Sunny 78 25.7 56 13.2 46 46 SSE 9 15 29.71 1006 10 16.0934 0 0
1:55 pm 13:55 Sunny 80 26.5 56 13.2 44 44 SSE 12 19 29.68 1005 10 16.0934 0 0
2:15 pm 14:15 Sunny 80 26.6 56 13.1 43 43 SSE 13 20 29.68 1005 10 16.0934 0 0
2:35 pm 14:35 Sunny 81 27.4 55 13 41 41 SSE 14 22 29.68 1005 10 16.0934 0 0
2:55 pm 14:55 Sunny 82 27.8 55 12.6 39 39 SSE 13 20 29.65 1004 10 16.0934 0 0
3:15 pm 15:15 Sunny 83 28.5 54 12.4 37 37 SSE 16 26 29.62 1003 10 16.0934 0 0
3:35 pm 15:35 Sunny 84 29.1 54 12 35 35 SSE 14 22 29.62 1003 10 16.0934 0 0
3:55 pm 15:55 Sunny 85 29.2 53 11.9 34 34 S 16 26 29.62 1003 10 16.0934 0 0
4:15 pm 16:15 Sunny 85 29.7 53 11.8 33 33 SSE 16 26 29.62 1003 10 16.0934 0 0
4:35 pm 16:35 Sunny 85 29.7 53 11.6 33 33 S 13 20 29.62 1003 10 16.0934 0 0
4:55 pm 16:55 Sunny 86 29.9 51 10.5 30 30 S 13 20 29.62 1003 10 16.0934 0 0
5:15 pm 17:15 Sunny 86 30.1 51 10.7 30 30 SSE 14 22 29.62 1003 10 16.0934 0 0
5:35 pm 17:35 Sunny 86 30.1 50 10.1 29 29 SSE 17 28 29.59 1002 10 16.0934 0 0
5:55 pm 17:55 Sunny 86 29.8 51 10.4 30 30 SSE 15 24 29.59 1002 7 11.26538 0 0
6:15 pm 18:15 Sunny 85 29.7 52 10.9 31 31 SSE 16 26 29.56 1001 7 11.26538 0 0
6:35 pm 18:35 Sunny 82 27.9 52 11 35 35 SSE 12 19 29.56 1001 7 11.26538 0 0
6:55 pm 18:55 Sunny 81 27.3 53 11.5 37 37 SSE 10 17 29.62 1003 7 11.26538 0 0
7:15 pm 19:15 Sunny 80 26.6 53 11.9 40 40 SSE 9 15 29.62 1003 10 16.0934 0 0
7:35 pm 19:35 Sunny 79 26 54 12.3 43 43 SE 9 15 29.62 1003 10 16.0934 0 0
7:55 pm 19:55 Clear 77 25.2 55 12.7 46 46 SSE 9 15 29.62 1003 10 16.0934 0 0
8:15 pm 20:15 Clear 78 25.4 55 12.7 45 45 ESE 14 22 29.59 1002 10 16.0934 0 0
8:35 pm 20:35 Clear 76 24.7 55 13 48 48 SE 13 20 29.59 1002 10 16.0934 0 0
8:55 pm 20:55 Clear 76 24.5 56 13.1 49 49 SE 10 17 29.59 1002 10 16.0934 0 0
9:15 pm 21:15 Clear 75 24 56 13.1 51 51 SE 8 13 29.65 1004 10 16.0934 0 0
9:35 pm 21:35 Clear 73 22.8 56 13.3 55 55 SE 5 7 29.65 1004 10 16.0934 0 0
9:55 pm 21:55 Clear 73 22.6 56 13.3 56 56 SSE 9 15 29.65 1004 10 16.0934 0 0
10:15 pm 22:15 Clear 73 23 56 13.3 54 54 SSE 10 17 29.65 1004 10 16.0934 0 0
10:35 pm 22:35 Clear 74 23.4 56 13.4 54 54 SSE 10 17 29.65 1004 10 16.0934 0 0
10:55 pm 22:55 Clear 74 23.1 56 13.5 55 55 SSE 8 13 29.65 1004 10 16.0934 0 0
11:15 pm 23:15 Clear 71 21.6 57 13.7 61 61 SSE 8 13 29.65 1004 10 16.0934 0 0
11:35 pm 23:35 Clear 69 20.6 57 14 66 66 SSE 7 11 29.65 1004 10 16.0934 0 0
11:55 pm 23:55 Clear 70 21.1 57 13.9 64 64 SSE 8 13 29.65 1004 10 16.0934 0 0

Powered by AerisWeather